Weather History for KSHR - October, 2013

Change the Weather History Date:

Tuesday, October 8, 2013

  Actual Average Record
Temperature  
Mean Temperature 52 °F 48 °F  
Max Temperature 62 °F 63 °F 85 °F (1980)
Min Temperature 41 °F 34 °F 17 °F (2000)
Degree Days  
Heating Degree Days 13 17  
Month to date heating degree days 171 123  
Since 1 July heating degree days 326 426  
Cooling Degree Days 0 0  
Month to date cooling degree days 0 0  
Year to date cooling degree days 592 418  
Growing Degree Days 2 (Base 50)    
Moisture  
Dew Point 36 °F    
Average Humidity 56    
Maximum Humidity 76    
Minimum Humidity 35    
Precipitation  
Precipitation 0.00 in 0.05 in 1.02 in (1993)
Month to date precipitation 1.55 0.45  
Year to date precipitation 15.80 11.93  
Sea Level Pressure  
Sea Level Pressure 29.78 in    
Wind  
Wind Speed 7 mph (South)    
Max Wind Speed 17 mph    
Max Gust Speed 22 mph    
Visibility 10 miles    
Events      
T = Trace of Precipitation, MM = Missing Value Source: NWS Daily Summary

Daily Weather History Graph

Daily Weather History Graph

Search for Another Location

Airport or City:

Trip Planner

Search our weather history database for the weather conditions in past years. The results will help you decide how hot, cold, wet, or windy it might be!

Date:

Astronomy

Oct. 08, 2013 Rise Set
Actual Time 7:14 AM MDT 6:35 PM MDT
Civil Twilight 6:45 AM MDT 7:04 PM MDT
Nautical Twilight 6:11 AM MDT 7:38 PM MDT
Astronomical Twilight 5:37 AM MDT 8:11 PM MDT
Moon 11:21 AM MDT (10/8) 9:04 PM MDT (10/8)
Length of Visible Light 12h 18m
Length of Day
11h 20m
Waxing Crescent, 16% of the Moon is Illuminated
Oct 8
Waxing Crescent
Oct 11
First Quarter
Oct 18
Full
Oct 26
Last Quarter
Nov 3
New

Hourly Weather History & Observations

Time (MDT) Temp. Windchill Dew Point Humidity Pressure Visibility Wind Dir Wind Speed Gust Speed Precip Events Conditions
12:53 AM 48.0 °F - 36.0 °F 63% 29.68 in 10.0 mi NW 9.2 mph - N/A   Clear
1:53 AM 45.0 °F - 37.9 °F 76% 29.68 in 10.0 mi Calm Calm - N/A   Clear
2:53 AM 48.9 °F - 35.1 °F 59% 29.67 in 10.0 mi Variable 3.5 mph - N/A   Clear
3:53 AM 48.9 °F - 32.0 °F 52% 29.67 in 10.0 mi SSW 4.6 mph - N/A   Clear
4:53 AM 43.0 °F 39.5 °F 36.0 °F 76% 29.72 in 10.0 mi NNW 5.8 mph - N/A   Clear
5:53 AM 42.1 °F 37.1 °F 36.0 °F 79% 29.80 in 10.0 mi SSW 8.1 mph - N/A   Clear
6:53 AM 44.1 °F - 34.0 °F 68% 29.81 in 10.0 mi Calm Calm - N/A   Clear
7:53 AM 44.1 °F 40.8 °F 36.0 °F 73% 29.83 in 10.0 mi SSE 5.8 mph - N/A   Clear
8:53 AM 48.9 °F - 39.9 °F 71% 29.82 in 10.0 mi Calm Calm - N/A   Clear
9:53 AM 55.0 °F - 39.0 °F 55% 29.80 in 10.0 mi SE 3.5 mph - N/A   Clear
10:53 AM 59.0 °F - 32.0 °F 36% 29.77 in 10.0 mi SSE 4.6 mph - N/A   Clear
11:53 AM 60.1 °F - 32.0 °F 35% 29.75 in 10.0 mi East 6.9 mph - N/A   Clear
12:53 PM 59.0 °F - 34.0 °F 39% 29.73 in 10.0 mi East 8.1 mph - N/A   Clear
1:53 PM 60.1 °F - 34.0 °F 38% 29.71 in 10.0 mi ESE 10.4 mph - N/A   Clear
2:53 PM 61.0 °F - 36.0 °F 39% 29.70 in 10.0 mi SE 9.2 mph - N/A   Clear
3:53 PM 61.0 °F - 35.1 °F 38% 29.70 in 10.0 mi ESE 10.4 mph 17.3 mph N/A   Clear
4:53 PM 61.0 °F - 35.1 °F 38% 29.72 in 10.0 mi SE 8.1 mph - N/A   Clear
5:53 PM 57.9 °F - 37.0 °F 46% 29.76 in 10.0 mi Calm Calm - N/A   Clear
6:53 PM 53.1 °F - 39.9 °F 61% 29.80 in 10.0 mi WNW 8.1 mph - N/A   Mostly Cloudy
7:53 PM 51.1 °F - 37.0 °F 59% 29.86 in 10.0 mi NW 13.8 mph - N/A   Mostly Cloudy
8:53 PM 48.9 °F - 36.0 °F 61% 29.90 in 10.0 mi NW 12.7 mph - N/A   Mostly Cloudy
9:53 PM 46.0 °F 40.6 °F 36.0 °F 68% 29.92 in 10.0 mi WNW 11.5 mph - N/A   Unknown
10:53 PM 48.0 °F - 36.0 °F 63% 29.93 in 10.0 mi WNW 10.4 mph - N/A   Overcast
11:53 PM 48.0 °F - 37.0 °F 66% 29.94 in 10.0 mi West 8.1 mph - N/A   Overcast